Hourly Weather Ōtsu

Today, 30 July, Friday

Time Temperature Precipitation Wind Pressure Humidity
00:00 +24°C° 0.3 mm 0 mps 737 mmHg 85%
01:00 +24°C° 0.4 mm 0 mps 736 mmHg 86%
02:00 +24°C° 0.4 mm 0 mps 736 mmHg 87%
03:00 +23°C° 0 mm 0 mps 736 mmHg 87%
04:00 +23°C° 0.1 mm 0 mps 736 mmHg 87%
05:00 +24°C° 0.1 mm 0 mps 736 mmHg 87%
06:00 +24°C° 0.1 mm 0 mps 737 mmHg 86%
07:00 +25°C° 0 mm 0 mps 737 mmHg 79%
08:00 +29°C° 0 mm 1 mps 737 mmHg 71%
09:00 +30°C° 0 mm 1 mps 737 mmHg 63%
10:00 +32°C° 0 mm 1 mps 737 mmHg 59%
11:00 +33°C° 0 mm 1 mps 736 mmHg 54%
12:00 +34°C° 0 mm 1 mps 736 mmHg 50%
13:00 +34°C° 0.1 mm 1 mps 736 mmHg 50%
14:00 +35°C° 0.1 mm 2 mps 735 mmHg 49%
15:00 +35°C° 0 mm 2 mps 735 mmHg 51%
16:00 +34°C° 0.2 mm 2 mps 735 mmHg 56%
17:00 +32°C° 0.2 mm 1 mps 735 mmHg 61%
18:00 +30°C° 0.2 mm 1 mps 735 mmHg 66%
19:00 +29°C° 0 mm 1 mps 736 mmHg 71%
20:00 +28°C° 0 mm 1 mps 736 mmHg 75%
21:00 +28°C° 0 mm 1 mps 736 mmHg 78%
22:00 +27°C° 0.3 mm 1 mps 736 mmHg 81%
23:00 +27°C° 0.3 mm 1 mps 736 mmHg 83%

Tomorrow, 31 July, Saturday

Time Temperature Precipitation Wind Pressure Humidity
00:00 +27°C° 0.3 mm 1 mps 736 mmHg 85%
01:00 +26°C° 0.2 mm 1 mps 736 mmHg 86%
02:00 +24°C° 0.2 mm 0 mps 736 mmHg 86%
03:00 +24°C° 0.2 mm 0 mps 736 mmHg 87%
04:00 +24°C° 0.3 mm 0 mps 736 mmHg 88%
05:00 +24°C° 0.3 mm 0 mps 737 mmHg 88%
06:00 +24°C° 0.3 mm 0 mps 737 mmHg 88%
07:00 +25°C° 1 mm 0 mps 737 mmHg 83%
08:00 +27°C° 1 mm 0 mps 737 mmHg 78%
09:00 +28°C° 1 mm 0 mps 737 mmHg 73%
10:00 +29°C° 0.6 mm 0 mps 737 mmHg 67%
11:00 +30°C° 0.6 mm 0 mps 737 mmHg 61%
12:00 +33°C° 0.6 mm 1 mps 736 mmHg 55%
13:00 +33°C° 0.2 mm 1 mps 736 mmHg 56%
14:00 +33°C° 0.2 mm 1 mps 736 mmHg 57%
15:00 +34°C° 0.2 mm 2 mps 736 mmHg 58%
16:00 +32°C° 0.3 mm 2 mps 736 mmHg 62%
17:00 +31°C° 0.3 mm 1 mps 736 mmHg 67%
18:00 +30°C° 0.3 mm 1 mps 736 mmHg 71%
19:00 +29°C° 0.4 mm 1 mps 736 mmHg 76%
20:00 +28°C° 0.4 mm 1 mps 736 mmHg 80%
21:00 +27°C° 0.4 mm 1 mps 737 mmHg 84%
22:00 +26°C° 0.5 mm 1 mps 737 mmHg 86%
23:00 +26°C° 0.5 mm 1 mps 737 mmHg 87%

Day after tomorrow, 1 August, Sunday

Time Temperature Precipitation Wind Pressure Humidity
00:00 +24°C° 0.5 mm 0 mps 737 mmHg 88%
01:00 +23°C° 0.8 mm 0 mps 737 mmHg 89%
02:00 +23°C° 0.8 mm 0 mps 737 mmHg 91%
03:00 +23°C° 0.8 mm 0 mps 737 mmHg 92%
04:00 +23°C° 0.2 mm 0 mps 737 mmHg 92%
05:00 +23°C° 0.2 mm 0 mps 737 mmHg 92%
06:00 +23°C° 0.2 mm 0 mps 737 mmHg 91%
07:00 +27°C° 0.8 mm 1 mps 737 mmHg 86%
08:00 +28°C° 0.8 mm 1 mps 738 mmHg 82%
09:00 +29°C° 0.8 mm 1 mps 738 mmHg 77%
10:00 +30°C° 0.2 mm 1 mps 737 mmHg 71%
11:00 +31°C° 0.2 mm 1 mps 737 mmHg 65%
12:00 +33°C° 0.2 mm 1 mps 737 mmHg 59%
13:00 +33°C° 0.3 mm 1 mps 737 mmHg 58%
14:00 +34°C° 0.3 mm 2 mps 737 mmHg 57%
15:00 +34°C° 0.3 mm 2 mps 736 mmHg 56%
16:00 +32°C° 0.7 mm 2 mps 737 mmHg 63%
17:00 +31°C° 0.7 mm 1 mps 737 mmHg 69%
18:00 +30°C° 0.7 mm 1 mps 737 mmHg 76%
19:00 +29°C° 0.4 mm 1 mps 737 mmHg 79%
20:00 +28°C° 0.4 mm 1 mps 738 mmHg 82%
21:00 +27°C° 0.4 mm 1 mps 738 mmHg 85%
22:00 +27°C° 0.1 mm 1 mps 738 mmHg 87%
23:00 +27°C° 0.1 mm 1 mps 738 mmHg 88%

2 August, Monday

Time Temperature Precipitation Wind Pressure Humidity
00:00 +26°C° 0.1 mm 1 mps 738 mmHg 90%
01:00 +26°C° 0 mm 1 mps 738 mmHg 91%
02:00 +26°C° 0 mm 1 mps 738 mmHg 91%
03:00 +26°C° 0 mm 1 mps 738 mmHg 92%
04:00 +26°C° 0 mm 1 mps 739 mmHg 92%
05:00 +26°C° 0 mm 1 mps 739 mmHg 92%
06:00 +26°C° 0 mm 1 mps 739 mmHg 92%
07:00 +27°C° 0 mm 1 mps 739 mmHg 84%
08:00 +28°C° 0 mm 1 mps 739 mmHg 76%
09:00 +30°C° 0 mm 2 mps 739 mmHg 68%
10:00 +31°C° 0 mm 2 mps 739 mmHg 61%
11:00 +32°C° 0 mm 2 mps 739 mmHg 54%
12:00 +35°C° 0 mm 3 mps 739 mmHg 47%
13:00 +35°C° 0 mm 3 mps 739 mmHg 46%
14:00 +35°C° 0 mm 3 mps 739 mmHg 46%
15:00 +35°C° 0 mm 4 mps 738 mmHg 46%
16:00 +34°C° 0 mm 4 mps 739 mmHg 52%
17:00 +33°C° 0 mm 3 mps 739 mmHg 58%
18:00 +30°C° 0 mm 3 mps 739 mmHg 64%
19:00 +29°C° 0 mm 3 mps 740 mmHg 69%
20:00 +28°C° 0 mm 2 mps 740 mmHg 74%
21:00 +27°C° 0 mm 2 mps 741 mmHg 79%
22:00 +27°C° 0 mm 2 mps 741 mmHg 81%
23:00 +27°C° 0 mm 2 mps 741 mmHg 82%

3 August, Tuesday

Time Temperature Precipitation Wind Pressure Humidity
00:00 +27°C° 0 mm 2 mps 741 mmHg 84%
01:00 +27°C° 0 mm 2 mps 741 mmHg 85%
02:00 +27°C° 0 mm 2 mps 741 mmHg 86%
03:00 +27°C° 0 mm 2 mps 741 mmHg 87%
04:00 +27°C° 0 mm 2 mps 741 mmHg 87%
05:00 +27°C° 0 mm 2 mps 741 mmHg 87%
06:00 +27°C° 0 mm 2 mps 741 mmHg 88%
07:00 +28°C° 0.1 mm 3 mps 742 mmHg 86%
08:00 +28°C° 0.1 mm 4 mps 742 mmHg 83%
09:00 +29°C° 0.1 mm 4 mps 742 mmHg 81%
10:00 +30°C° 0.1 mm 5 mps 742 mmHg 75%
11:00 +32°C° 0.1 mm 5 mps 742 mmHg 69%
12:00 +33°C° 0.1 mm 6 mps 742 mmHg 63%
13:00 +33°C° 0 mm 6 mps 742 mmHg 63%
14:00 +33°C° 0 mm 6 mps 742 mmHg 62%
15:00 +33°C° 0 mm 6 mps 742 mmHg 62%
16:00 +33°C° 0 mm 5 mps 742 mmHg 66%
17:00 +32°C° 0 mm 5 mps 742 mmHg 70%
18:00 +30°C° 0 mm 4 mps 742 mmHg 73%
19:00 +29°C° 0 mm 3 mps 742 mmHg 77%
20:00 +28°C° 0 mm 3 mps 742 mmHg 80%
21:00 +28°C° 0 mm 2 mps 743 mmHg 83%
22:00 +27°C° 0 mm 2 mps 742 mmHg 84%
23:00 +27°C° 0 mm 2 mps 742 mmHg 86%

4 August, Wednesday

Time Temperature Precipitation Wind Pressure Humidity
00:00 +27°C° 0 mm 2 mps 742 mmHg 87%
01:00 +27°C° 0 mm 2 mps 742 mmHg 88%
02:00 +26°C° 0 mm 1 mps 742 mmHg 89%
03:00 +26°C° 0 mm 1 mps 742 mmHg 90%
04:00 +26°C° 0 mm 1 mps 742 mmHg 90%
05:00 +26°C° 0 mm 1 mps 742 mmHg 90%
06:00 +26°C° 0 mm 1 mps 742 mmHg 90%
07:00 +28°C° 0 mm 1 mps 742 mmHg 82%
08:00 +30°C° 0 mm 2 mps 742 mmHg 74%
09:00 +31°C° 0 mm 2 mps 742 mmHg 66%
10:00 +32°C° 0 mm 2 mps 742 mmHg 61%
11:00 +35°C° 0 mm 2 mps 741 mmHg 56%
12:00 +36°C° 0 mm 2 mps 741 mmHg 50%
13:00 +36°C° 0 mm 2 mps 741 mmHg 49%
14:00 +37°C° 0 mm 2 mps 740 mmHg 47%
15:00 +37°C° 0 mm 2 mps 740 mmHg 45%
16:00 +36°C° 0 mm 2 mps 740 mmHg 51%
17:00 +35°C° 0 mm 2 mps 740 mmHg 56%
18:00 +32°C° 0 mm 2 mps 740 mmHg 61%
19:00 +31°C° 0 mm 2 mps 740 mmHg 67%
20:00 +30°C° 0 mm 1 mps 740 mmHg 72%
21:00 +29°C° 0 mm 1 mps 740 mmHg 78%
22:00 +28°C° 0 mm 1 mps 740 mmHg 80%
23:00 +28°C° 0 mm 1 mps 740 mmHg 82%
Show more